Tracking 26894 objects as of 1-Feb-2023
HD Live streaming from Space Station
objects crossing your sky now

SCOUT B DEB

Track SCOUT B DEB now!
10-day predictions


NORAD ID: 29178
Int'l Code: 1965-063AC
Perigee: 1,138.8 km
Apogee: 2,373.9 km
Inclination: 69.2 °
Period: 121.5 minutes
Semi major axis: 8127 km
RCS: 0.0023 m2 (small)
Launch date: August 10, 1965
Source: United States (US)
Launch site: WALLOPS ISLAND (WLPIS)

Note: This is SATELLITE DEBRIS
Your satellite tracking list
Your tracking list is empty




NASA's NSSDC Master Catalog

Two Line Element Set (TLE):
1 29178U 65063AC  23024.64934157  .00000499  00000-0  35877-2 0  9991
2 29178  69.2075 153.9998 0759791   9.4108   5.2404 11.84893176769704
Source of the keplerian elements: AFSPC